Regional Weather Roundup
Issued by NWS

Home | Current Version | Previous Version | Graphics & Text | Print | Product List | Glossary On
Versions: 1 2 3 4 5 6 7 8 9 10 11 12 13 14 15 16 17 18 19 20 21 22 23 24 25 26 27 28 29 30 31 32 33 34 35 36 37 38 39 40 41 42 43 44 45 46 47 48 49 50
000
ASUS43 KMPX 300610
RWRMN
WEATHER ROUNDUP FOR MINNESOTA
NATIONAL WEATHER SERVICE TWIN CITIES/CHANHASSEN MN
100 AM CDT SAT APR 30 2016


NOTE: "FAIR" INDICATES FEW OR NO CLOUDS BELOW 12,000 FEET WITH NO
SIGNIFICANT WEATHER AND/OR OBSTRUCTIONS TO VISIBILITY. N/A MEANS
CURRENT SKY AND/OR WEATHER CONDITIONS ARE NOT AVAILABLE.

MNZ060>063-068>070-300700-
   Twin Cities Metro

CITY           SKY/WX    TMP DP  RH WIND       PRES   REMARKS
TWIN CITIES    MOCLDY    48  39  71 NE6       30.13F
6HR MIN TEMP:  48; 6HR MAX TEMP:  59;

ST PAUL        CLOUDY    49  38  65 NE7       30.13F
CRYSTAL        CLOUDY    51  35  54 E5        30.12S
BLAINE         PTCLDY    48  36  61 NE6       30.14S
EDEN PRAIRIE   PTCLDY    48  39  71 NE5       30.11F
6HR MIN TEMP:  46; 6HR MAX TEMP:  59;

SOUTH ST PAUL  CLOUDY    49  40  70 N3        30.12F
LAKE ELMO      MOCLDY    46  34  61 NE8       30.13F
$$
MNZ001>005-007-008-013>017-022>024-027-028-300700-
   Northwest Minnesota

CITY           SKY/WX    TMP DP  RH WIND       PRES   REMARKS
BEMIDJI        CLEAR     41  32  70 E7        30.19R
HALLOCK        CLEAR     45  30  57 E5        30.21S
ROSEAU         CLEAR     43  34  70 E6        30.23R
WARROAD        CLEAR     37  34  87 E6        30.24S
THIEF RVR FALL CLEAR     43  30  61 NE9       30.21R
CROOKSTON      CLEAR     45  32  61 E9        30.18S
FOSSTON        CLEAR     43  30  61 E8        30.18R
DETROIT LAKES  CLEAR     48  32  53 E9        30.15R
MOORHEAD       CLEAR     45  34  65 NE9       30.14R
PARK RAPIDS    CLEAR     47  31  53 E10       30.16R
MAHNOMEN       FAIR      45  32  60 E9        30.16R
$$
MNZ006-009>011-018-025>026-300700-
   North Central Minnesota

CITY           SKY/WX    TMP DP  RH WIND       PRES   REMARKS
BAUDETTE       CLEAR     40  29  64 E7        30.23S
FLAG ISLAND    CLEAR     45  30  57 E6        30.25S
INTL FALLS     PTCLDY    40  31  70 E6        30.25S
6HR MIN TEMP:  38; 6HR MAX TEMP:  55;

WASKISH        CLEAR     43  34  70 E7        30.22S
BIG FORK       CLEAR     39  30  70 NE5       30.23R
LONGVILLE      CLEAR     43  28  56 E3        30.19R
GRAND RAPIDS   CLEAR     41  27  56 CALM      30.21S
CRANE LAKE     CLEAR     27  27 100 CALM      30.27S
ORR            CLEAR     37  28  70 CALM      30.22S
COOK           CLEAR     30  28  93 CALM      30.24R
WALKER         FAIR      44  32  63 E6        30.19R
$$
MNZ012-019>021-037-300700-
   Northeast Minnesota

CITY           SKY/WX    TMP DP  RH WIND       PRES   REMARKS
DULUTH         CLEAR     36  28  73 E7        30.20R
6HR MIN TEMP:  35; 6HR MAX TEMP:  47;

ELY            PTCLDY    39  30  70 NE3       30.23S
HIBBING        CLEAR     33  29  85 NE5       30.21S WCI  29
EVELETH        CLEAR     37  32  81 NE7       30.22F
DULUTH HARBOR  CLEAR     37  36  93 E8        30.23R
TWO HARBORS    CLEAR     37  30  75 N3        30.20R
SILVER BAY     CLEAR     30  27  86 CALM      30.21R
GRAND MARAIS     N/A     42  32  67 E6        30.24F
G MARAIS ARPRT CLOUDY    37  27  65 N8        30.23F
$$
MNZ029>031-032-039>041-046>048-054>057-064-300700-
   West Central Minnesota

CITY           SKY/WX    TMP DP  RH WIND       PRES   REMARKS
FERGUS FALLS   CLEAR     46  36  66 E3        30.11R
WHEATON        CLEAR     45  39  81 CALM      30.13R
MORRIS         CLEAR     46  36  66 E8        30.11R
ALEXANDRIA     CLEAR     46  32  58 E9        30.14R
ELBOW LAKE     FAIR      47  36  63 E7        30.13R
WADENA         CLEAR     43  30  61 E7        30.15R
GLENWOOD       CLEAR     43  34  70 E10       30.13R
APPLETON       CLEAR     37  36  93 NE8       30.10S
BENSON         CLEAR     45  34  65 E6        30.11R
ORTONVILLE     CLEAR     43  39  87 NE3       30.10R
MADISON        CLEAR     41  37  87 NE5       30.09S
WILLMAR        FAIR      48  36  61 E10       30.11F
$$
MNZ033>034-036-042>043-049>051-058-059-300700-
   Central Minnesota

CITY           SKY/WX    TMP DP  RH WIND       PRES   REMARKS
ST CLOUD       CLEAR     45  32  60 NE9       30.14R
6HR MIN TEMP:  45; 6HR MAX TEMP:  59;

SAUK CENTRE    FAIR      44  33  65 E9        30.14R
PAYNESVILLE    CLEAR     47  32  55 E12G17    30.13R
AITKIN         CLEAR     41  28  60 NE6       30.17F
PINE RIVER     CLEAR     43  30  61 E8        30.20F
BRAINERD       CLEAR     43  28  55 E7        30.18R
STAPLES        CLEAR     45  30  57 E5        30.16R
LONG PRAIRIE   FAIR      43  32  65 NE8       30.15R
LITTLE FALLS   CLEAR     43  32  65 E8        30.16R
LITCHFIELD     CLEAR     46  36  66 NE8       30.11F
BUFFALO        CLEAR     48  34  58 NE9       30.14R
MAPLE LAKE     CLEAR     47  36  66 NE8       30.14S
HUTCHINSON     CLEAR     43  38  82 NE7       30.12S
$$
MNZ037-044-045-052-053-300700-
   East Central Minnesota

CITY           SKY/WX    TMP DP  RH WIND       PRES   REMARKS
PRINCETON      CLEAR     46  32  57 NE9       30.16R
MORA           CLEAR     37  30  75 NE5       30.19S
CAMBRIDGE      CLEAR     46  34  61 NE6       30.15R
RUSH CITY      CLEAR     43  31  63 NE8       30.17S
MOOSE LAKE     CLEAR     36  30  80 NE5       30.18F
HINCKLEY       FAIR      37  32  81 NE6       30.19R
CLOQUET        CLEAR     39  28  65 SE5       30.21R
MCGREGOR       CLEAR     41  32  70 NE5       30.19F
$$
MNZ071>073-080-081-089-090-097-098-300700-
   Southwest Minnesota

CITY           SKY/WX    TMP DP  RH WIND       PRES   REMARKS
MONTEVIDEO     CLEAR     39  36  87 E7        30.11S
GRANITE FALLS  PTCLDY    45  39  81 E3        30.10S
CANBY          CLOUDY    40  39  97 CALM      30.09S
MARSHALL       PTCLDY    42  38  85 CALM      30.09S
REDWOOD FALLS  PTCLDY    44  38  79 CALM      30.09S
OLIVIA         CLOUDY    43  36  75 E3        30.09S
PIPESTONE      CLEAR     45  39  81 E6        30.06S
WINDOM         CLEAR     39  37  93 CALM      30.08R
WORTHINGTON    CLEAR     40  38  93 NE9       30.06S
JACKSON        CLOUDY    41  36  81 E7        30.07S
TRACY          PTCLDY    43  40  89 S5        30.09R
SLAYTON        CLEAR     41  40  96 E5        30.08R
$$
MNZ065>067-074>077-082>085-091>093-300700-
   South Central Minnesota

CITY           SKY/WX    TMP DP  RH WIND       PRES   REMARKS
MANKATO        CLOUDY    45  37  76 E6        30.11R
NEW ULM        CLOUDY    45  39  81 SE5       30.10R
ST JAMES       CLOUDY    37  36  93 E6        30.10R
FAIRMONT       CLOUDY    41  27  56 E7        30.08R
GLENCOE        CLEAR     42  41  97 CALM      30.11R
FARIBAULT      PTCLDY    43  37  81 CALM      30.11S
OWATONNA       CLOUDY    43  37  81 E3        30.11R
WASECA         CLOUDY    41  37  87 E5        30.11R
ALBERT LEA     CLOUDY    45  39  81 E6        30.09R
$$
MNZ078>079-086>088-094>096-300700-
   Southeast Minnesota

CITY           SKY/WX    TMP DP  RH WIND       PRES   REMARKS
ROCHESTER      CLOUDY    42  39  89 E3        30.11R
6HR MIN TEMP:  41; 6HR MAX TEMP:  49;

RED WING       CLOUDY    45  39  81 CALM      30.11S
STANTON        CLOUDY    42  39  87 CALM      30.10S
DODGE CENTER   CLOUDY    39  36  87 NE3       30.11R
WINONA         PTCLDY    41  37  87 CALM      30.12R
AUSTIN         CLOUDY    45  39  81 CALM      30.10R
PRESTON        PTCLDY    43  38  80 NE3       30.10R
$$
ABBREVIATIONS USED IN REMARKS
   TC - TEMPERATURES IN CELSIUS
  WCI - WIND CHILL INDEX
   HX - HEAT INDEX
  VSB - VISIBILITY
$$




USA.gov is the U.S. government's official web portal to all federal, state and local government web resources and services.